SCP
0 0 0 0 0 0 0 0 0 0 0 0 0 0 0 0 0 1 1 1 0 0 0 0 0 0 0 0 0 0 0 0 0 0 0 0 0 0 0 0 0 0 0
0 0 0 0 0 0 0 0 0 0 0 0 0 0 0 0 0 1 1 1 0 0 0 0 0 0 0 0 0 0 0 0 0 0 0 0 0 0 0 0 0 0 0
0 0 0 0 0 0 0 0 0 0 0 0 0 0 0 0 0 0 1 1 0 0 0 0 0 0 0 0 0 0 0 0 0 0 0 0 0 0 0 0 0 0 0
0 0 0 0 0 0 0 0 0 0 0 0 0 0 0 0 0 0 0 0 0 0 0 0 0 0 0 0 0 0 0 0 0 0 0 0 0 0 0 0 0 0 0
0 0 0 0 0 0 0 0 0 0 0 0 0 0 0 0 0 0 0 0 0 0 0 0 0 0 0 0 0 0 0 0 0 0 0 0 0 0 0 0 0 0 0
0 0 0 0 0 0 0 0 0 0 0 0 0 0 0 0 0 0 0 0 0 0 0 0 0 0 0 0 0 0 0 0 0 0 0 0 0 0 0 0 0 0 0
0 0 0 0 0 0 0 0 0 0 0 0 0 0 0 0 0 0 0 0 0 0 0 0 0 0 0 0 0 0 0 0 0 0 0 0 0 0 0 0 0 0 0
0 0 0 0 0 0 0 0 0 0 0 0 0 0 0 0 0 0 0 0 0 0 0 0 0 0 0 0 0 0 0 0 0 0 0 0 0 0 0 0 0 0 0
0 0 0 0 0 0 0 0 0 0 0 0 0 0 0 0 0 0 0 0 0 0 0 0 0 0 0 0 0 0 0 0 0 0 0 0 0 0 0 0 0 0 0
0 0 0 0 0 0 0 0 0 0 0 0 0 0 0 0 0 0 0 0 0 0 0 0 0 0 0 0 0 0 0 0 0 0 0 0 0 0 0 0 0 0 0
0 0 0 0 0 0 0 0 0 0 0 0 0 0 0 0 0 0 0 0 0 0 0 0 0 0 0 0 0 0 0 0 0 0 0 0 0 0 0 0 0 0 0
0 0 0 0 0 0 0 0 0 0 0 0 0 0 0 0 0 0 0 0 0 0 0 0 0 0 0 0 0 0 0 0 0 0 0 0 0 0 0 0 0 0 0
0 0 0 0 0 0 0 0 0 0 0 0 0 0 0 0 0 0 0 0 0 0 0 0 0 0 0 0 0 0 0 0 0 0 0 0 0 0 0 0 0 0 0
0 0 0 0 0 0 0 0 0 0 0 0 0 0 0 0 0 0 0 0 0 0 0 0 0 0 0 0 0 0 0 0 0 0 0 0 0 0 0 0 0 0 0
0 0 0 0 0 0 0 0 0 0 0 0 0 0 0 0 0 0 0 0 0 0 0 0 0 0 0 0 0 0 0 0 0 0 0 0 0 0 0 0 0 0 0
0 0 0 0 0 0 0 0 0 0 0 0 0 0 0 0 0 0 0 0 0 0 0 0 0 0 0 0 0 0 0 0 0 0 0 0 0 0 0 0 0 0 0
0 0 -0 0 0 0 0 0 0 0 0 0 0 0 0 0 0 0 0 0 0 0 0 0 0 0 0 0 0 0 0 0 0 0 0 0 0 0 0 0 0 0 0
0 0 -0 -0 -0 0 0 0 0 0 0 0 0 0 0 0 0 0 0 0 0 0 0 0 0 0 0 0 0 0 0 0 0 0 0 0 0 0 0 0 0 0 0
0 0 0 0 0 0 0 0 0 0 0 0 0 0 0 0 0 0 0 0 0 0 0 0 0 0 0 0 0 0 0 0 0 0 0 0 0 0 0 0 0 0 0
0 0 0 0 0 0 0 0 0 0 0 0 0 0 0 0 0 0 0 0 0 0 0 0 0 0 0 0 0 0 0 0 0 0 0 0 0 0 0 0 0 0 0
0 0 0 0 0 0 0 0 0 0 0 0 0 0 0 0 0 0 0 0 0 0 0 0 0 0 0 0 0 0 0 0 0 0 0 0 0 0 0 0 0 0 0
0 0 0 0 0 0 0 0 0 0 0 0 0 0 0 0 0 0 0 0 0 0 0 0 0 0 0 0 0 0 0 0 0 0 0 0 0 0 0 0 0 0 0
-0 0 0 0 0 0 0 0 0 0 0 0 0 0 0 0 0 0 0 0 0 0 0 0 0 0 0 0 0 0 0 0 0 0 0 0 0 0 0 0 0 0 0
0 0 0 0 0 0 0 0 0 0 0 0 0 0 0 0 0 0 0 0 0 0 0 0 0 0 0 0 0 0 0 0 0 0 0 0 0 0 0 0 0 0 0
0 -0 -0 0 0 0 0 0 0 -0 0 0 0 0 0 0 0 -0 -0 0 0 0 0 0 0 0 0 0 0 0 0 0 0 0 0 0 0 0 0 0 0 0 0
0 -0 -0 0 0 0 0 0 0 0 0 0 0 0 0 0 0 -0 -0 0 0 0 0 0 0 0 0 0 0 0 0 0 0 0 0 0 0 0 0 0 0 0 0
Wind_Speed
2 1 6 8 8 8 9 9 9 9 9 8 7 7 6 5 5 5 6 6 6 6 6 6 7 7 7 8 9 9 9 10 10 9 9 9 10 10 9 9 9 6 10
2 1 7 8 9 9 9 9 9 9 8 8 7 6 5 5 4 4 4 4 5 5 5 6 6 6 7 8 8 9 9 10 9 9 8 8 9 9 9 10 9 6 10
3 2 5 9 9 9 10 10 9 8 8 7 7 6 5 4 3 3 3 3 3 4 4 5 5 5 6 7 8 8 9 9 9 9 7 4 5 9 10 10 9 9 10
4 3 5 9 9 9 9 9 9 8 7 7 6 6 5 4 3 2 2 2 2 3 3 4 4 5 5 6 8 8 8 9 9 8 4 3 3 8 9 10 10 10 10
4 3 5 9 9 9 9 9 9 9 8 7 6 6 5 4 2 2 1 1 1 2 2 3 3 4 5 5 6 8 8 8 9 7 4 3 3 7 9 10 10 10 11
4 3 4 8 8 9 9 9 9 9 9 7 6 6 5 5 3 2 2 1 0 1 2 2 2 3 4 5 6 7 8 8 7 4 4 4 3 8 9 10 10 11 11
3 2 3 7 8 8 9 9 9 10 9 9 7 7 6 6 5 3 3 2 1 1 2 2 3 3 4 5 5 6 7 7 5 4 4 4 5 9 10 10 11 11 11
4 2 3 6 7 8 8 8 9 9 10 9 9 8 7 6 6 4 3 3 2 1 2 2 2 3 3 4 5 5 6 6 5 5 4 4 8 10 10 11 11 12 12
4 3 3 3 4 6 7 8 9 9 10 10 10 9 8 8 7 6 5 4 3 2 2 2 2 2 3 3 4 4 5 5 4 4 5 4 9 11 12 11 12 12 12
3 3 2 2 2 2 3 6 9 9 9 10 10 10 9 8 7 7 6 5 4 4 3 3 3 3 3 3 4 3 3 4 4 4 3 5 10 12 12 12 12 13 13
3 2 2 2 2 2 2 4 5 7 8 8 7 9 8 4 3 4 5 6 5 5 4 4 3 2 2 3 3 2 2 2 3 3 3 7 10 12 12 13 13 13 13
1 1 1 1 1 1 2 2 1 2 3 4 3 4 3 3 3 4 6 7 6 5 5 5 5 3 1 1 2 2 1 2 3 3 4 9 11 12 13 13 13 14 14
1 1 0 1 1 1 1 1 1 1 1 2 3 3 3 3 2 2 2 3 3 3 2 3 3 2 1 1 1 2 2 2 2 3 5 9 11 12 13 14 13 14 14
1 1 1 1 0 0 0 0 1 1 1 1 2 3 2 2 2 2 1 1 1 1 2 2 2 2 2 2 2 3 3 2 3 3 4 9 11 12 13 14 14 14 14
2 2 2 1 1 1 1 1 1 1 1 2 2 2 2 1 2 2 2 1 1 1 2 2 2 3 3 3 3 3 4 4 4 4 3 9 10 12 13 13 14 14 15
3 3 2 2 1 1 1 1 1 1 2 2 2 3 2 2 2 2 2 2 2 2 2 2 3 3 3 3 3 4 4 4 4 5 4 6 9 11 13 14 14 14 15
4 3 2 2 1 1 2 2 2 2 2 2 2 3 3 3 3 3 3 2 2 2 2 2 3 2 3 3 3 4 4 4 4 5 5 4 5 9 12 14 14 14 15
4 3 3 2 1 2 2 3 2 2 2 3 3 3 4 4 4 3 3 3 3 2 2 2 2 2 3 3 3 3 3 4 5 5 5 5 4 5 8 12 13 14 15
4 3 3 2 2 2 3 3 3 3 3 3 3 3 4 5 5 3 3 4 3 2 2 3 2 2 3 3 4 4 3 4 5 5 6 6 5 5 5 8 11 13 14
3 3 3 3 3 3 2 2 2 3 3 3 4 4 5 5 5 4 4 5 3 3 3 3 3 3 3 3 4 4 4 4 4 5 5 5 5 6 5 5 6 8 11
2 2 3 3 3 2 1 2 2 3 3 3 4 5 5 5 5 4 5 4 4 4 4 4 3 3 3 2 2 3 4 4 5 4 4 4 5 5 5 5 4 4 5
3 3 3 4 4 3 3 3 3 3 3 4 4 4 5 5 5 5 5 4 4 4 5 4 3 3 3 2 1 1 2 3 3 4 4 4 5 4 5 6 5 5 4
3 4 4 5 5 4 4 2 2 2 2 2 3 3 4 5 5 5 5 5 5 5 5 5 5 5 4 3 3 3 2 3 3 3 5 5 5 4 5 5 6 6 5
5 5 5 5 5 5 4 3 4 4 5 5 4 4 5 6 6 6 6 6 6 5 5 6 5 5 5 4 3 4 4 3 3 3 3 4 5 6 6 5 5 6 6
5 5 5 5 5 5 5 4 5 5 5 5 4 6 6 5 6 6 7 6 6 5 6 7 6 6 5 6 5 4 4 5 5 4 5 4 4 5 6 6 5 6 6
4 4 4 5 6 5 5 5 5 7 7 6 7 6 5 4 5 6 7 6 7 6 7 8 7 8 7 7 6 5 5 5 5 5 6 5 5 5 5 5 6 6 6
Wind_Direction
298 306 47 48 49 51 54 53 52 53 51 53 56 62 72 85 93 100 107 114 118 124 132 134 137 140 139 137 138 137 138 140 139 133 130 130 127 123 122 121 118 111 117
182 85 60 53 51 48 48 49 50 49 48 46 48 52 60 71 87 103 114 122 128 133 142 145 141 144 148 145 144 143 147 147 142 136 134 136 134 133 132 130 130 127 125
108 80 63 57 53 49 47 43 44 45 45 41 40 41 46 56 71 95 116 127 139 148 150 150 148 147 153 157 153 153 155 152 150 144 137 134 141 142 141 139 138 133 131
99 79 65 60 55 50 46 42 39 37 38 36 32 30 31 37 51 71 104 131 145 156 162 162 161 157 157 162 165 165 162 159 156 152 148 152 157 155 151 147 145 140 136
83 71 67 63 56 49 44 41 36 32 28 28 27 23 19 18 20 28 48 130 150 157 164 170 172 169 169 169 173 176 173 167 160 160 156 159 166 165 160 154 151 147 142
85 70 70 66 58 50 44 40 35 30 25 20 18 17 11 5 2 358 349 339 223 173 169 174 179 180 181 178 180 184 178 169 161 166 164 168 176 174 169 162 158 154 150
98 66 65 65 58 49 43 40 35 28 22 18 12 8 7 4 356 349 345 328 319 231 201 195 192 187 188 187 190 186 180 174 166 171 176 178 184 183 181 175 167 164 160
113 84 59 58 54 47 41 37 32 24 20 15 12 6 2 0 357 350 346 343 331 309 263 219 210 199 195 192 195 192 182 175 171 181 186 189 189 192 190 184 178 172 167
88 73 51 43 45 43 39 34 28 23 20 17 12 8 3 360 356 351 350 346 341 325 308 274 242 228 216 208 201 191 183 179 176 186 192 195 193 197 194 190 185 180 175
67 63 53 43 43 38 33 33 27 22 20 17 12 9 5 359 354 354 353 349 347 342 325 308 268 247 234 233 218 201 187 180 186 190 200 203 198 201 199 193 189 188 184
46 36 44 39 32 26 21 26 24 17 14 10 7 5 1 345 338 341 347 353 353 351 338 325 303 271 256 247 235 216 191 192 189 197 206 211 208 208 204 199 193 191 189
24 352 22 27 24 25 13 23 8 6 360 358 353 350 347 342 340 349 342 348 349 346 339 326 319 294 281 247 233 211 198 200 196 205 214 214 214 214 211 205 198 195 193
209 255 321 347 7 30 7 354 344 344 343 344 344 342 341 340 337 344 340 337 336 341 336 321 315 299 273 258 243 220 212 206 211 217 218 216 218 219 217 211 204 201 200
199 235 243 262 346 303 291 287 278 300 315 319 319 329 341 337 328 322 321 319 326 317 308 308 294 290 282 263 245 232 223 220 220 224 225 221 221 222 222 217 210 208 206
199 221 229 236 234 254 238 262 287 266 270 279 297 310 315 316 302 295 297 290 294 305 291 289 292 279 268 269 258 247 234 229 224 224 228 224 224 225 225 223 217 213 211
208 218 225 235 235 243 239 242 251 257 263 272 281 289 290 283 289 280 282 275 272 272 279 270 274 274 255 253 257 254 245 236 229 228 228 225 227 228 228 226 222 218 215
206 212 221 233 234 245 248 245 251 248 255 258 264 275 277 272 278 275 265 262 259 264 275 282 280 285 269 259 256 258 252 241 239 231 226 222 223 227 230 230 227 222 220
195 207 225 235 237 251 247 242 239 240 244 249 253 263 269 265 263 270 270 260 254 254 257 266 265 277 278 262 261 260 256 248 241 233 226 223 223 228 228 232 232 228 225
193 202 221 228 233 250 257 251 243 243 247 249 249 253 259 259 255 250 264 262 247 243 245 264 264 245 269 277 267 259 254 255 246 237 228 222 222 225 223 228 232 231 229
198 206 219 237 249 258 274 276 265 258 255 250 247 249 253 254 254 248 256 262 247 241 247 246 254 252 249 265 277 272 262 257 252 237 227 224 222 223 221 224 225 230 230
208 218 226 237 255 257 277 272 256 256 253 253 249 249 251 253 255 247 258 255 249 240 238 240 246 251 251 248 280 288 281 257 251 244 233 223 221 221 214 217 221 228 228
218 229 236 238 249 248 244 241 233 239 250 246 251 257 250 252 255 259 254 251 247 244 242 235 228 246 252 217 202 259 296 292 255 246 235 227 226 219 219 220 219 223 227
231 230 237 244 250 253 250 252 271 284 284 276 262 257 249 248 248 252 257 258 251 237 239 236 221 233 241 234 198 205 228 250 284 247 230 228 223 226 224 218 221 224 224
236 236 237 247 254 257 251 243 247 258 265 263 257 255 260 251 247 245 247 253 250 238 238 239 234 224 223 236 225 224 231 239 243 276 257 234 226 226 224 232 226 224 223
237 238 242 249 256 259 251 240 247 258 258 265 267 265 263 257 249 247 244 246 247 239 238 240 237 229 221 226 226 227 238 239 232 238 258 249 243 227 219 221 219 221 221
255 253 250 250 259 260 256 252 249 256 262 267 270 267 265 262 255 249 251 248 249 240 235 236 233 229 227 229 229 222 223 223 221 227 241 240 249 250 229 220 219 220 221